Location: Canet
(43.3261°N, 5.3723°E)
Time: 18:11:44
(UTC+00:00)

Cosmos 2278 Rocket - Pass Details

Date: 24 January 2021
Orbit: 840 x 847 km, 71.0° (Epoch: 07 March)

Event Time Altitude Azimuth Distance (km) Brightness Sun altitude
Rises 19:01:01 0° 206° (SSW) 3,387 5.7 -25.5°
Reaches altitude 10° 19:03:27 10° 207° (SSW) 2,457 4.9 -26.0°
Maximum altitude 19:09:06 81° 294° (WNW) 860 2.2 -27.0°
Enters shadow 19:10:14 59° 10° (N) 978 2.4 -27.2°
